Location: Unspecified
(49.2170°N, 0.0000°E)
Time: 23:13:48
(UTC+00:00)

Transit 4A - Pass Details

Date: 21 June 2019
Orbit: 862 x 982 km, 66.8° (Epoch: 21 July)

Event Time Altitude Azimuth Distance (km) Brightness Sun altitude
Rises 14:16:09 0° 318° (NW) 3,696 11.1 53.2°
Reaches altitude 10° 14:19:27 10° 334° (NNW) 2,746 10.5 52.7°
Maximum altitude 14:24:15 21° 22° (NNE) 2,035 9.6 52.0°
Drops below altitude 10° 14:28:59 10° 71° (ENE) 2,718 10.1 51.4°
Sets 14:32:13 0° 87° (E) 3,647 10.7 50.9°
